Year,Month,Day,Hour,Minute,Value (Times are PST for temperature in C)
2017,05,16,00,00,4.70
2017,05,16,00,01,4.70
2017,05,16,00,02,4.70
2017,05,16,00,03,4.70
2017,05,16,00,04,4.70
2017,05,16,00,05,4.70
2017,05,16,00,06,4.70
2017,05,16,00,07,4.70
2017,05,16,00,08,4.70
2017,05,16,00,09,4.70
2017,05,16,00,10,4.70
2017,05,16,00,11,4.70
2017,05,16,00,12,4.70
2017,05,16,00,13,4.70
2017,05,16,00,14,4.70
2017,05,16,00,15,4.70
2017,05,16,00,16,4.70
2017,05,16,00,17,4.70
2017,05,16,00,18,4.70
2017,05,16,00,19,4.70
2017,05,16,00,20,4.70
2017,05,16,00,21,4.70
2017,05,16,00,22,4.70
2017,05,16,00,23,4.70
2017,05,16,00,24,4.70
2017,05,16,00,25,4.70
2017,05,16,00,26,4.60
2017,05,16,00,27,4.60
2017,05,16,00,28,4.60
2017,05,16,00,29,4.60
2017,05,16,00,30,4.60
2017,05,16,00,31,4.60
2017,05,16,00,32,4.60
2017,05,16,00,33,4.60
2017,05,16,00,34,4.60
2017,05,16,00,35,4.60
2017,05,16,00,36,4.60
2017,05,16,00,37,4.60
2017,05,16,00,38,4.60
2017,05,16,00,39,4.60
2017,05,16,00,40,4.60
2017,05,16,00,41,4.60
2017,05,16,00,42,4.60
2017,05,16,00,43,4.60
2017,05,16,00,44,4.60
2017,05,16,00,45,4.60
2017,05,16,00,46,4.60
2017,05,16,00,47,4.60
2017,05,16,00,48,4.60
2017,05,16,00,49,4.60
2017,05,16,00,50,4.60
2017,05,16,00,51,4.60
2017,05,16,00,52,4.60
2017,05,16,00,53,4.60
2017,05,16,00,54,4.60
2017,05,16,00,55,4.60
2017,05,16,00,56,4.60
2017,05,16,00,57,4.60
2017,05,16,00,58,4.60
2017,05,16,00,59,4.60
2017,05,16,01,00,4.60
2017,05,16,01,01,4.60
2017,05,16,01,02,4.60
2017,05,16,01,03,4.60
2017,05,16,01,04,4.70
2017,05,16,01,05,4.60
2017,05,16,01,06,4.70
2017,05,16,01,07,4.60
2017,05,16,01,08,4.60
2017,05,16,01,09,4.60
2017,05,16,01,10,4.60
2017,05,16,01,11,4.60
2017,05,16,01,12,4.60
2017,05,16,01,13,4.60
2017,05,16,01,14,4.60
2017,05,16,01,15,4.60
2017,05,16,01,16,4.60
2017,05,16,01,17,4.60
2017,05,16,01,18,4.60
2017,05,16,01,19,4.60
2017,05,16,01,20,4.60
2017,05,16,01,21,4.60
2017,05,16,01,22,4.60
2017,05,16,01,23,4.60
2017,05,16,01,24,4.60
2017,05,16,01,25,4.60
2017,05,16,01,26,4.60
2017,05,16,01,27,4.60
2017,05,16,01,28,4.60
2017,05,16,01,29,4.60
2017,05,16,01,30,4.60
2017,05,16,01,31,4.60
2017,05,16,01,32,4.60
2017,05,16,01,33,4.60
2017,05,16,01,34,4.60
2017,05,16,01,35,4.60
2017,05,16,01,36,4.60
2017,05,16,01,37,4.60
2017,05,16,01,38,4.60
2017,05,16,01,39,4.60
2017,05,16,01,40,4.60
2017,05,16,01,41,4.60
2017,05,16,01,42,4.60
2017,05,16,01,43,4.60
2017,05,16,01,44,4.60
2017,05,16,01,45,4.60
2017,05,16,01,46,4.60
2017,05,16,01,47,4.60
2017,05,16,01,48,4.60
2017,05,16,01,49,4.60
2017,05,16,01,50,4.60
2017,05,16,01,51,4.60
2017,05,16,01,52,4.60
2017,05,16,01,53,4.60
2017,05,16,01,54,4.60
2017,05,16,01,55,4.70
2017,05,16,01,56,4.70
2017,05,16,01,57,4.70
2017,05,16,01,58,4.70
2017,05,16,01,59,4.70
2017,05,16,02,00,4.70
2017,05,16,02,01,4.70
2017,05,16,02,02,4.70
2017,05,16,02,03,4.70
2017,05,16,02,04,4.70
2017,05,16,02,05,4.70
2017,05,16,02,06,4.70
2017,05,16,02,07,4.70
2017,05,16,02,08,4.70
2017,05,16,02,09,4.70
2017,05,16,02,10,4.70
2017,05,16,02,11,4.70
2017,05,16,02,12,4.70
2017,05,16,02,13,4.70
2017,05,16,02,14,4.70
2017,05,16,02,15,4.70
2017,05,16,02,16,4.70
2017,05,16,02,17,4.70
2017,05,16,02,18,4.70
2017,05,16,02,19,4.70
2017,05,16,02,20,4.70
2017,05,16,02,21,4.70
2017,05,16,02,22,4.70
2017,05,16,02,23,4.70
2017,05,16,02,24,4.70
2017,05,16,02,25,4.70
2017,05,16,02,26,4.70
2017,05,16,02,27,4.60
2017,05,16,02,28,4.60
2017,05,16,02,29,4.60
2017,05,16,02,30,4.70
2017,05,16,02,31,4.70
2017,05,16,02,32,4.70
2017,05,16,02,33,4.70
2017,05,16,02,34,4.70
2017,05,16,02,35,4.70
2017,05,16,02,36,4.70
2017,05,16,02,37,4.70
2017,05,16,02,38,4.70
2017,05,16,02,39,4.70
2017,05,16,02,40,4.70
2017,05,16,02,41,4.70
2017,05,16,02,42,4.70
2017,05,16,02,43,4.80
2017,05,16,02,44,4.80
2017,05,16,02,45,4.80
2017,05,16,02,46,4.80
2017,05,16,02,47,4.80
2017,05,16,02,48,4.80
2017,05,16,02,49,4.80
2017,05,16,02,50,4.80
2017,05,16,02,51,4.80
2017,05,16,02,52,4.80
2017,05,16,02,53,4.80
2017,05,16,02,54,4.80
2017,05,16,02,55,4.80
2017,05,16,02,56,4.80
2017,05,16,02,57,4.80
2017,05,16,02,58,4.80
2017,05,16,02,59,4.80
2017,05,16,03,00,4.80
2017,05,16,03,01,4.80
2017,05,16,03,02,4.80
2017,05,16,03,03,4.80
2017,05,16,03,04,4.80
2017,05,16,03,05,4.80
2017,05,16,03,06,4.80
2017,05,16,03,07,4.80
2017,05,16,03,08,4.80
2017,05,16,03,09,4.80
2017,05,16,03,10,4.80
2017,05,16,03,11,4.80
2017,05,16,03,12,4.80
2017,05,16,03,13,4.80
2017,05,16,03,14,4.80
2017,05,16,03,15,4.80
2017,05,16,03,16,4.80
2017,05,16,03,17,4.80
2017,05,16,03,18,4.80
2017,05,16,03,19,4.80
2017,05,16,03,20,4.80
2017,05,16,03,21,4.80
2017,05,16,03,22,4.80
2017,05,16,03,23,4.80
2017,05,16,03,24,4.80
2017,05,16,03,25,4.80
2017,05,16,03,26,4.80
2017,05,16,03,27,4.80
2017,05,16,03,28,4.80
2017,05,16,03,29,4.80
2017,05,16,03,30,4.80
2017,05,16,03,31,4.80
2017,05,16,03,32,4.80
2017,05,16,03,33,4.80
2017,05,16,03,34,4.80
2017,05,16,03,35,4.80
2017,05,16,03,36,4.80
2017,05,16,03,37,4.80
2017,05,16,03,38,4.80
2017,05,16,03,39,4.80
2017,05,16,03,40,4.80
2017,05,16,03,41,4.80
2017,05,16,03,42,4.80
2017,05,16,03,43,4.80
2017,05,16,03,44,4.80
2017,05,16,03,45,4.80
2017,05,16,03,46,4.80
2017,05,16,03,47,4.70
2017,05,16,03,48,4.70
2017,05,16,03,49,4.70
2017,05,16,03,50,4.70
2017,05,16,03,51,4.70
2017,05,16,03,52,4.70
2017,05,16,03,53,4.70
2017,05,16,03,54,4.70
2017,05,16,03,55,4.70
2017,05,16,03,56,4.70
2017,05,16,03,57,4.70
2017,05,16,03,58,4.70
2017,05,16,03,59,4.70
2017,05,16,04,00,4.70
2017,05,16,04,01,4.70
2017,05,16,04,02,4.70
2017,05,16,04,03,4.70
2017,05,16,04,04,4.70
2017,05,16,04,05,4.70
2017,05,16,04,06,4.70
2017,05,16,04,07,4.70
2017,05,16,04,08,4.70
2017,05,16,04,09,4.70
2017,05,16,04,10,4.70
2017,05,16,04,11,4.70
2017,05,16,04,12,4.70
2017,05,16,04,13,4.70
2017,05,16,04,14,4.70
2017,05,16,04,15,4.70
2017,05,16,04,16,4.70
2017,05,16,04,17,4.70
2017,05,16,04,18,4.70
2017,05,16,04,19,4.70
2017,05,16,04,20,4.70
2017,05,16,04,21,4.70
2017,05,16,04,22,4.70
2017,05,16,04,23,4.70
2017,05,16,04,24,4.70
2017,05,16,04,25,4.80
2017,05,16,04,26,4.80
2017,05,16,04,27,4.80
2017,05,16,04,28,4.80
2017,05,16,04,29,4.80
2017,05,16,04,30,4.80
2017,05,16,04,31,4.80
2017,05,16,04,32,4.80
2017,05,16,04,33,4.80
2017,05,16,04,34,4.80
2017,05,16,04,35,4.80
2017,05,16,04,36,4.80
2017,05,16,04,37,4.80
2017,05,16,04,38,4.80
2017,05,16,04,39,4.80
2017,05,16,04,40,4.80
2017,05,16,04,41,4.80
2017,05,16,04,42,4.80
2017,05,16,04,43,4.80
2017,05,16,04,44,4.80
2017,05,16,04,45,4.80
2017,05,16,04,46,4.80
2017,05,16,04,47,4.80
2017,05,16,04,48,4.80
2017,05,16,04,49,4.80
2017,05,16,04,50,4.80
2017,05,16,04,51,4.90
2017,05,16,04,52,4.90
2017,05,16,04,53,4.90
2017,05,16,04,54,4.80
2017,05,16,04,55,4.80
2017,05,16,04,56,4.80
2017,05,16,04,57,4.90
2017,05,16,04,58,4.90
2017,05,16,04,59,4.90
2017,05,16,05,00,4.90
2017,05,16,05,01,4.90
2017,05,16,05,02,4.90
2017,05,16,05,03,4.90
2017,05,16,05,04,4.90
2017,05,16,05,05,4.90
2017,05,16,05,06,4.90
2017,05,16,05,07,4.90
2017,05,16,05,08,4.90
2017,05,16,05,09,4.90
2017,05,16,05,10,4.90
2017,05,16,05,11,4.90
2017,05,16,05,12,4.90
2017,05,16,05,13,4.90
2017,05,16,05,14,4.90
2017,05,16,05,15,4.90
2017,05,16,05,16,4.90
2017,05,16,05,17,4.90
2017,05,16,05,18,4.90
2017,05,16,05,19,4.90
2017,05,16,05,20,4.90
2017,05,16,05,21,4.90
2017,05,16,05,22,4.90
2017,05,16,05,23,4.90
2017,05,16,05,24,4.90
2017,05,16,05,25,4.90
2017,05,16,05,26,4.90
2017,05,16,05,27,4.90
2017,05,16,05,28,4.90
2017,05,16,05,29,4.90
2017,05,16,05,30,5.00
2017,05,16,05,31,5.00
2017,05,16,05,32,4.90
2017,05,16,05,33,5.00
2017,05,16,05,34,4.90
2017,05,16,05,35,4.90
2017,05,16,05,36,4.90
2017,05,16,05,37,5.00
2017,05,16,05,38,5.00
2017,05,16,05,39,4.90
2017,05,16,05,40,5.00
2017,05,16,05,41,4.90
2017,05,16,05,42,5.00
2017,05,16,05,43,5.00
2017,05,16,05,44,5.00
2017,05,16,05,45,5.00
2017,05,16,05,46,5.00
2017,05,16,05,47,4.90
2017,05,16,05,48,5.00
2017,05,16,05,49,5.00
2017,05,16,05,50,5.00
2017,05,16,05,51,5.00
2017,05,16,05,52,5.00
2017,05,16,05,53,5.00
2017,05,16,05,54,5.00
2017,05,16,05,55,5.00
2017,05,16,05,56,5.00
2017,05,16,05,57,5.00
2017,05,16,05,58,5.10
2017,05,16,05,59,5.10
2017,05,16,06,00,5.10
2017,05,16,06,01,5.10
2017,05,16,06,02,5.10
2017,05,16,06,03,5.10
2017,05,16,06,04,5.10
2017,05,16,06,05,5.10
2017,05,16,06,06,5.10
2017,05,16,06,07,5.10
2017,05,16,06,08,5.10
2017,05,16,06,09,5.20
2017,05,16,06,10,5.20
2017,05,16,06,11,5.20
2017,05,16,06,12,5.20
2017,05,16,06,13,5.20
2017,05,16,06,14,5.20
2017,05,16,06,15,5.20
2017,05,16,06,16,5.20
2017,05,16,06,17,5.20
2017,05,16,06,18,5.30
2017,05,16,06,19,5.30
2017,05,16,06,20,5.30
2017,05,16,06,21,5.30
2017,05,16,06,22,5.30
2017,05,16,06,23,5.30
2017,05,16,06,24,5.30
2017,05,16,06,25,5.30
2017,05,16,06,26,5.30
2017,05,16,06,27,5.30
2017,05,16,06,28,5.30
2017,05,16,06,29,5.30
2017,05,16,06,30,5.30
2017,05,16,06,31,5.30
2017,05,16,06,32,5.30
2017,05,16,06,33,5.30
2017,05,16,06,34,5.30
2017,05,16,06,35,5.30
2017,05,16,06,36,5.30
2017,05,16,06,37,5.30
2017,05,16,06,38,5.30
2017,05,16,06,39,5.30
2017,05,16,06,40,5.30
2017,05,16,06,41,5.30
2017,05,16,06,42,5.30
2017,05,16,06,43,5.30
2017,05,16,06,44,5.30
2017,05,16,06,45,5.30
2017,05,16,06,46,5.30
2017,05,16,06,47,5.30
2017,05,16,06,48,5.30
2017,05,16,06,49,5.30
2017,05,16,06,50,5.30
2017,05,16,06,51,5.30
2017,05,16,06,52,5.30
2017,05,16,06,53,5.30
2017,05,16,06,54,5.30
2017,05,16,06,55,5.30
2017,05,16,06,56,5.30
2017,05,16,06,57,5.30
2017,05,16,06,58,5.30
2017,05,16,06,59,5.30
2017,05,16,07,00,5.30
2017,05,16,07,01,5.30
2017,05,16,07,02,5.30
2017,05,16,07,03,5.30
2017,05,16,07,04,5.30
2017,05,16,07,05,5.30
2017,05,16,07,06,5.30
2017,05,16,07,07,5.40
2017,05,16,07,08,5.40
2017,05,16,07,09,5.40
2017,05,16,07,10,5.40
2017,05,16,07,11,5.40
2017,05,16,07,12,5.40
2017,05,16,07,13,5.40
2017,05,16,07,14,5.40
2017,05,16,07,15,5.40
2017,05,16,07,16,5.40
2017,05,16,07,17,5.40
2017,05,16,07,18,5.50
2017,05,16,07,19,5.50
2017,05,16,07,20,5.50
2017,05,16,07,21,5.50
2017,05,16,07,22,5.50
2017,05,16,07,23,5.50
2017,05,16,07,24,5.50
2017,05,16,07,25,5.60
2017,05,16,07,26,5.60
2017,05,16,07,27,5.60
2017,05,16,07,28,5.60
2017,05,16,07,29,5.60
2017,05,16,07,30,5.60
2017,05,16,07,31,5.60
2017,05,16,07,32,5.60
2017,05,16,07,33,5.60
2017,05,16,07,34,5.60
2017,05,16,07,35,5.60
2017,05,16,07,36,5.70
2017,05,16,07,37,5.70
2017,05,16,07,38,5.70
2017,05,16,07,39,5.70
2017,05,16,07,40,5.70
2017,05,16,07,41,5.70
2017,05,16,07,42,5.70
2017,05,16,07,43,5.70
2017,05,16,07,44,5.80
2017,05,16,07,45,5.80
2017,05,16,07,46,5.80
2017,05,16,07,47,5.80
2017,05,16,07,48,5.80
2017,05,16,07,49,5.80
2017,05,16,07,50,5.80
2017,05,16,07,51,5.90
2017,05,16,07,52,5.90
2017,05,16,07,53,5.90
2017,05,16,07,54,5.90
2017,05,16,07,55,5.90
2017,05,16,07,56,5.90
2017,05,16,07,57,5.90
2017,05,16,07,58,6.00
2017,05,16,07,59,6.00
2017,05,16,08,00,6.00
2017,05,16,08,01,6.00
2017,05,16,08,02,6.00
2017,05,16,08,03,6.00
2017,05,16,08,04,6.10
2017,05,16,08,05,6.10
2017,05,16,08,06,6.10
2017,05,16,08,07,6.10
2017,05,16,08,08,6.20
2017,05,16,08,09,6.20
2017,05,16,08,10,6.20
2017,05,16,08,11,6.20
2017,05,16,08,12,6.20
2017,05,16,08,13,6.20
2017,05,16,08,14,6.20
2017,05,16,08,15,6.20
2017,05,16,08,16,6.20
2017,05,16,08,17,6.20
2017,05,16,08,18,6.20
2017,05,16,08,19,6.20
2017,05,16,08,20,6.20
2017,05,16,08,21,6.20
2017,05,16,08,22,6.20
2017,05,16,08,23,6.30
2017,05,16,08,24,6.30
2017,05,16,08,25,6.30
2017,05,16,08,26,6.30
2017,05,16,08,27,6.30
2017,05,16,08,28,6.30
2017,05,16,08,29,6.40
2017,05,16,08,30,6.40
2017,05,16,08,31,6.40
2017,05,16,08,32,6.40
2017,05,16,08,33,6.50
2017,05,16,08,34,6.50
2017,05,16,08,35,6.50
2017,05,16,08,36,6.60
2017,05,16,08,37,6.60
2017,05,16,08,38,6.60
2017,05,16,08,39,6.70
2017,05,16,08,40,6.80
2017,05,16,08,41,6.80
2017,05,16,08,42,6.80
2017,05,16,08,43,6.90
2017,05,16,08,44,6.90
2017,05,16,08,45,7.00
2017,05,16,08,46,7.00
2017,05,16,08,47,7.10
2017,05,16,08,48,7.10
2017,05,16,08,49,7.20
2017,05,16,08,50,7.30
2017,05,16,08,51,7.40
2017,05,16,08,52,7.50
2017,05,16,08,53,7.60
2017,05,16,08,54,7.80
2017,05,16,08,55,7.90
2017,05,16,08,56,8.10
2017,05,16,08,57,8.20
2017,05,16,08,58,8.20
2017,05,16,08,59,8.30
2017,05,16,09,00,8.30
2017,05,16,09,01,8.40
2017,05,16,09,02,8.40
2017,05,16,09,03,8.40
2017,05,16,09,04,8.40
2017,05,16,09,05,8.40
2017,05,16,09,06,8.40
2017,05,16,09,07,8.40
2017,05,16,09,08,8.50
2017,05,16,09,09,8.60
2017,05,16,09,10,8.60
2017,05,16,09,11,8.70
2017,05,16,09,12,8.80
2017,05,16,09,13,8.90
2017,05,16,09,14,8.90
2017,05,16,09,15,9.00
2017,05,16,09,16,9.00
2017,05,16,09,17,9.10
2017,05,16,09,18,9.10
2017,05,16,09,19,9.10
2017,05,16,09,20,9.10
2017,05,16,09,21,9.00
2017,05,16,09,22,9.00
2017,05,16,09,23,9.00
2017,05,16,09,24,9.00
2017,05,16,09,25,9.00
2017,05,16,09,26,9.00
2017,05,16,09,27,9.00
2017,05,16,09,28,9.00
2017,05,16,09,29,8.90
2017,05,16,09,30,8.90
2017,05,16,09,31,8.90
2017,05,16,09,32,9.00
2017,05,16,09,33,9.00
2017,05,16,09,34,9.10
2017,05,16,09,35,9.10
2017,05,16,09,36,9.10
2017,05,16,09,37,9.20
2017,05,16,09,38,9.20
2017,05,16,09,39,9.20
2017,05,16,09,40,9.20
2017,05,16,09,41,9.20
2017,05,16,09,42,9.20
2017,05,16,09,43,9.20
2017,05,16,09,44,9.20
2017,05,16,09,45,9.20
2017,05,16,09,46,9.30
2017,05,16,09,47,9.30
2017,05,16,09,48,9.30
2017,05,16,09,49,9.40
2017,05,16,09,50,9.40
2017,05,16,09,51,9.40
2017,05,16,09,52,9.40
2017,05,16,09,53,9.40
2017,05,16,09,54,9.50
2017,05,16,09,55,9.50
2017,05,16,09,56,9.60
2017,05,16,09,57,9.60
2017,05,16,09,58,9.60
2017,05,16,09,59,9.60
2017,05,16,10,00,9.60
2017,05,16,10,01,9.60
2017,05,16,10,02,9.60
2017,05,16,10,03,9.50
2017,05,16,10,04,9.40
2017,05,16,10,05,9.40
2017,05,16,10,06,9.40
2017,05,16,10,07,9.40
2017,05,16,10,08,9.40
2017,05,16,10,09,9.40
2017,05,16,10,10,9.40
2017,05,16,10,11,9.50
2017,05,16,10,12,9.50
2017,05,16,10,13,9.60
2017,05,16,10,14,9.60
2017,05,16,10,15,9.70
2017,05,16,10,16,9.80
2017,05,16,10,17,9.90
2017,05,16,10,18,10.00
2017,05,16,10,19,10.10
2017,05,16,10,20,10.20
2017,05,16,10,21,10.30
2017,05,16,10,22,10.40
2017,05,16,10,23,10.30
2017,05,16,10,24,10.30
2017,05,16,10,25,10.30
2017,05,16,10,26,10.30
2017,05,16,10,27,10.30
2017,05,16,10,28,10.40
2017,05,16,10,29,10.40
2017,05,16,10,30,10.40
2017,05,16,10,31,10.50
2017,05,16,10,32,10.50
2017,05,16,10,33,10.50
2017,05,16,10,34,10.50
2017,05,16,10,35,10.50
2017,05,16,10,36,10.60
2017,05,16,10,37,10.50
2017,05,16,10,38,10.40
2017,05,16,10,39,10.40
2017,05,16,10,40,10.30
2017,05,16,10,41,10.30
2017,05,16,10,42,10.30
2017,05,16,10,43,10.30
2017,05,16,10,44,10.30
2017,05,16,10,45,10.40
2017,05,16,10,46,10.50
2017,05,16,10,47,10.50
2017,05,16,10,48,10.60
2017,05,16,10,49,10.60
2017,05,16,10,50,10.70
2017,05,16,10,51,10.70
2017,05,16,10,52,10.70
2017,05,16,10,53,10.60
2017,05,16,10,54,10.60
2017,05,16,10,55,10.60
2017,05,16,10,56,10.60
2017,05,16,10,57,10.70
2017,05,16,10,58,10.70
2017,05,16,10,59,10.70
2017,05,16,11,00,10.70
2017,05,16,11,01,10.70
2017,05,16,11,02,10.80
2017,05,16,11,03,10.80
2017,05,16,11,04,10.80
2017,05,16,11,05,10.80
2017,05,16,11,06,10.70
2017,05,16,11,07,10.70
2017,05,16,11,08,10.70
2017,05,16,11,09,10.70
2017,05,16,11,10,10.60
2017,05,16,11,11,10.70
2017,05,16,11,12,10.70
2017,05,16,11,13,10.70
2017,05,16,11,14,10.80
2017,05,16,11,15,10.80
2017,05,16,11,16,10.90
2017,05,16,11,17,11.00
2017,05,16,11,18,11.10
2017,05,16,11,19,11.10
2017,05,16,11,20,11.20
2017,05,16,11,21,11.30
2017,05,16,11,22,11.30
2017,05,16,11,23,11.30
2017,05,16,11,24,11.40
2017,05,16,11,25,11.30
2017,05,16,11,26,11.30
2017,05,16,11,27,11.30
2017,05,16,11,28,11.30
2017,05,16,11,29,11.30
2017,05,16,11,30,11.30
2017,05,16,11,31,11.30
2017,05,16,11,32,11.30
2017,05,16,11,33,11.30
2017,05,16,11,34,11.30
2017,05,16,11,35,11.30
2017,05,16,11,36,11.30
2017,05,16,11,37,11.20
2017,05,16,11,38,11.20
2017,05,16,11,39,11.20
2017,05,16,11,40,11.20
2017,05,16,11,41,11.10
2017,05,16,11,42,11.10
2017,05,16,11,43,11.20
2017,05,16,11,44,11.20
2017,05,16,11,45,11.30
2017,05,16,11,46,11.30
2017,05,16,11,47,11.30
2017,05,16,11,48,11.30
2017,05,16,11,49,11.20
2017,05,16,11,50,11.10
2017,05,16,11,51,11.10
2017,05,16,11,52,11.00
2017,05,16,11,53,11.00
2017,05,16,11,54,11.00
2017,05,16,11,55,11.10
2017,05,16,11,56,11.10
2017,05,16,11,57,11.20
2017,05,16,11,58,11.30
2017,05,16,11,59,11.30
2017,05,16,12,00,11.40
2017,05,16,12,01,11.50
2017,05,16,12,02,11.50
2017,05,16,12,03,11.60
2017,05,16,12,04,11.70
2017,05,16,12,05,11.70
2017,05,16,12,06,11.70
2017,05,16,12,07,11.70
2017,05,16,12,08,11.80
2017,05,16,12,09,11.80
2017,05,16,12,10,11.90
2017,05,16,12,11,12.00
2017,05,16,12,12,12.00
2017,05,16,12,13,12.10
2017,05,16,12,14,12.10
2017,05,16,12,15,12.10
2017,05,16,12,16,12.10
2017,05,16,12,17,12.20
2017,05,16,12,18,12.30
2017,05,16,12,19,12.30
2017,05,16,12,20,12.30
2017,05,16,12,21,12.30
2017,05,16,12,22,12.30
2017,05,16,12,23,12.40
2017,05,16,12,24,12.40
2017,05,16,12,25,12.50
2017,05,16,12,26,12.60
2017,05,16,12,27,12.50
2017,05,16,12,28,12.60
2017,05,16,12,29,12.60
2017,05,16,12,30,12.60
2017,05,16,12,31,12.50
2017,05,16,12,32,12.40
2017,05,16,12,33,12.50
2017,05,16,12,34,12.50
2017,05,16,12,35,12.60
2017,05,16,12,36,12.60
2017,05,16,12,37,12.60
2017,05,16,12,38,12.70
2017,05,16,12,39,12.60
2017,05,16,12,40,12.50
2017,05,16,12,41,12.40
2017,05,16,12,42,12.40
2017,05,16,12,43,12.40
2017,05,16,12,44,12.40
2017,05,16,12,45,12.40
2017,05,16,12,46,12.50
2017,05,16,12,47,12.60
2017,05,16,12,48,12.60
2017,05,16,12,49,12.70
2017,05,16,12,50,12.70
2017,05,16,12,51,12.70
2017,05,16,12,52,12.70
2017,05,16,12,53,12.70
2017,05,16,12,54,12.70
2017,05,16,12,55,12.60
2017,05,16,12,56,12.60
2017,05,16,12,57,12.60
2017,05,16,12,58,12.70
2017,05,16,12,59,12.70
2017,05,16,13,00,12.70
2017,05,16,13,01,12.70
2017,05,16,13,02,12.70
2017,05,16,13,03,12.70
2017,05,16,13,04,12.70
2017,05,16,13,05,12.70
2017,05,16,13,06,12.70
2017,05,16,13,07,12.80
2017,05,16,13,08,12.90
2017,05,16,13,09,12.90
2017,05,16,13,10,12.90
2017,05,16,13,11,12.90
2017,05,16,13,12,13.00
2017,05,16,13,13,13.00
2017,05,16,13,14,13.10
2017,05,16,13,15,13.20
2017,05,16,13,16,13.20
2017,05,16,13,17,13.30
2017,05,16,13,18,13.30
2017,05,16,13,19,13.30
2017,05,16,13,20,13.30
2017,05,16,13,21,13.20
2017,05,16,13,22,13.20
2017,05,16,13,23,13.20
2017,05,16,13,24,13.20
2017,05,16,13,25,13.20
2017,05,16,13,26,13.20
2017,05,16,13,27,13.30
2017,05,16,13,28,13.30
2017,05,16,13,29,13.20
2017,05,16,13,30,13.30
2017,05,16,13,31,13.40
2017,05,16,13,32,13.40
2017,05,16,13,33,13.50
2017,05,16,13,34,13.60
2017,05,16,13,35,13.60
2017,05,16,13,36,13.60
2017,05,16,13,37,13.60
2017,05,16,13,38,13.60
2017,05,16,13,39,13.60
2017,05,16,13,40,13.60
2017,05,16,13,41,13.60
2017,05,16,13,42,13.50
2017,05,16,13,43,13.50
2017,05,16,13,44,13.60
2017,05,16,13,45,13.60
2017,05,16,13,46,13.60
2017,05,16,13,47,13.70
2017,05,16,13,48,13.70
2017,05,16,13,49,13.70
2017,05,16,13,50,13.70
2017,05,16,13,51,13.70
2017,05,16,13,52,13.70
2017,05,16,13,53,13.70
2017,05,16,13,54,13.80
2017,05,16,13,55,13.70
2017,05,16,13,56,13.70
2017,05,16,13,57,13.80
2017,05,16,13,58,13.80
2017,05,16,13,59,13.90
2017,05,16,14,00,13.90
2017,05,16,14,01,13.90
2017,05,16,14,02,13.80
2017,05,16,14,03,13.80
2017,05,16,14,04,13.80
2017,05,16,14,05,13.80
2017,05,16,14,06,13.80
2017,05,16,14,07,13.70
2017,05,16,14,08,13.70
2017,05,16,14,09,13.80
2017,05,16,14,10,13.80
2017,05,16,14,11,13.90
2017,05,16,14,12,14.10
2017,05,16,14,13,14.10
2017,05,16,14,14,14.10
2017,05,16,14,15,14.10
2017,05,16,14,16,14.10
2017,05,16,14,17,14.10
2017,05,16,14,18,14.10
2017,05,16,14,19,14.20
2017,05,16,14,20,14.10
2017,05,16,14,21,14.10
2017,05,16,14,22,14.20
2017,05,16,14,23,14.20
2017,05,16,14,24,14.30
2017,05,16,14,25,14.40
2017,05,16,14,26,14.40
2017,05,16,14,27,14.50
2017,05,16,14,28,14.50
2017,05,16,14,29,14.60
2017,05,16,14,30,14.70
2017,05,16,14,31,14.70
2017,05,16,14,32,14.80
2017,05,16,14,33,14.70
2017,05,16,14,34,14.70
2017,05,16,14,35,14.70
2017,05,16,14,36,14.80
2017,05,16,14,37,14.80
2017,05,16,14,38,14.80
2017,05,16,14,39,14.80
2017,05,16,14,40,14.70
2017,05,16,14,41,14.70
2017,05,16,14,42,14.70
2017,05,16,14,43,14.70
2017,05,16,14,44,14.70
2017,05,16,14,45,14.60
2017,05,16,14,46,14.50
2017,05,16,14,47,14.60
2017,05,16,14,48,14.60
2017,05,16,14,49,14.60
2017,05,16,14,50,14.70
2017,05,16,14,51,14.70
2017,05,16,14,52,14.80
2017,05,16,14,53,14.80
2017,05,16,14,54,14.70
2017,05,16,14,55,14.70
2017,05,16,14,56,14.80
2017,05,16,14,57,14.90
2017,05,16,14,58,15.00
2017,05,16,14,59,15.10
2017,05,16,15,00,15.10
2017,05,16,15,01,15.20
2017,05,16,15,02,15.20
2017,05,16,15,03,15.20
2017,05,16,15,04,15.20
2017,05,16,15,05,15.10
2017,05,16,15,06,15.00
2017,05,16,15,07,14.90
2017,05,16,15,08,14.90
2017,05,16,15,09,14.90
2017,05,16,15,10,14.90
2017,05,16,15,11,15.00
2017,05,16,15,12,15.00
2017,05,16,15,13,15.10
2017,05,16,15,14,15.10
2017,05,16,15,15,15.10
2017,05,16,15,16,15.10
2017,05,16,15,17,15.10
2017,05,16,15,18,15.20
2017,05,16,15,19,15.30
2017,05,16,15,20,15.30
2017,05,16,15,21,15.30
2017,05,16,15,22,15.40
2017,05,16,15,23,15.40
2017,05,16,15,24,15.40
2017,05,16,15,25,15.30
2017,05,16,15,26,15.40
2017,05,16,15,27,15.50
2017,05,16,15,28,15.50
2017,05,16,15,29,15.60
2017,05,16,15,30,15.60
2017,05,16,15,31,15.60
2017,05,16,15,32,15.60
2017,05,16,15,33,15.60
2017,05,16,15,34,15.70
2017,05,16,15,35,15.70
2017,05,16,15,36,15.70
2017,05,16,15,37,15.70
2017,05,16,15,38,15.60
2017,05,16,15,39,15.60
2017,05,16,15,40,15.60
2017,05,16,15,41,15.60
2017,05,16,15,42,15.60
2017,05,16,15,43,15.70
2017,05,16,15,44,15.70
2017,05,16,15,45,15.70
2017,05,16,15,46,15.60
2017,05,16,15,47,15.60
2017,05,16,15,48,15.50
2017,05,16,15,49,15.50
2017,05,16,15,50,15.40
2017,05,16,15,51,15.40
2017,05,16,15,52,15.40
2017,05,16,15,53,15.50
2017,05,16,15,54,15.50
2017,05,16,15,55,15.50
2017,05,16,15,56,15.50
2017,05,16,15,57,15.50
2017,05,16,15,58,15.50
2017,05,16,15,59,15.60
2017,05,16,16,00,15.60
2017,05,16,16,01,15.70
2017,05,16,16,02,15.80
2017,05,16,16,03,15.90
2017,05,16,16,04,15.90
2017,05,16,16,05,15.90
2017,05,16,16,06,15.90
2017,05,16,16,07,15.90
2017,05,16,16,08,15.90
2017,05,16,16,09,15.90
2017,05,16,16,10,16.00
2017,05,16,16,11,16.00
2017,05,16,16,12,16.10
2017,05,16,16,13,16.10
2017,05,16,16,14,16.10
2017,05,16,16,15,16.10
2017,05,16,16,16,16.10
2017,05,16,16,17,16.10
2017,05,16,16,18,16.10
2017,05,16,16,19,16.10
2017,05,16,16,20,16.10
2017,05,16,16,21,16.10
2017,05,16,16,22,16.00
2017,05,16,16,23,15.90
2017,05,16,16,24,15.90
2017,05,16,16,25,15.90
2017,05,16,16,26,15.90
2017,05,16,16,27,15.90
2017,05,16,16,28,15.90
2017,05,16,16,29,15.90
2017,05,16,16,30,15.90
2017,05,16,16,31,15.90
2017,05,16,16,32,15.80
2017,05,16,16,33,15.70
2017,05,16,16,34,15.70
2017,05,16,16,35,15.80
2017,05,16,16,36,15.80
2017,05,16,16,37,15.80
2017,05,16,16,38,15.90
2017,05,16,16,39,15.90
2017,05,16,16,40,15.90
2017,05,16,16,41,15.90
2017,05,16,16,42,15.90
2017,05,16,16,43,15.90
2017,05,16,16,44,15.90
2017,05,16,16,45,15.90
2017,05,16,16,46,15.80
2017,05,16,16,47,15.80
2017,05,16,16,48,15.80
2017,05,16,16,49,15.70
2017,05,16,16,50,15.70
2017,05,16,16,51,15.70
2017,05,16,16,52,15.60
2017,05,16,16,53,15.60
2017,05,16,16,54,15.60
2017,05,16,16,55,15.70
2017,05,16,16,56,15.70
2017,05,16,16,57,15.80
2017,05,16,16,58,15.90
2017,05,16,16,59,16.00
2017,05,16,17,00,16.10
2017,05,16,17,01,16.10
2017,05,16,17,02,16.20
2017,05,16,17,03,16.20
2017,05,16,17,04,16.30
2017,05,16,17,05,16.30
2017,05,16,17,06,16.40
2017,05,16,17,07,16.50
2017,05,16,17,08,16.60
2017,05,16,17,09,16.70
2017,05,16,17,10,16.70
2017,05,16,17,11,16.70
2017,05,16,17,12,16.70
2017,05,16,17,13,16.70
2017,05,16,17,14,16.70
2017,05,16,17,15,16.70
2017,05,16,17,16,16.60
2017,05,16,17,17,16.60
2017,05,16,17,18,16.50
2017,05,16,17,19,16.50
2017,05,16,17,20,16.40
2017,05,16,17,21,16.40
2017,05,16,17,22,16.40
2017,05,16,17,23,16.40
2017,05,16,17,24,16.40
2017,05,16,17,25,16.40
2017,05,16,17,26,16.40
2017,05,16,17,27,16.40
2017,05,16,17,28,16.30
2017,05,16,17,29,16.30
2017,05,16,17,30,16.20
2017,05,16,17,31,16.10
2017,05,16,17,32,16.10
2017,05,16,17,33,16.10
2017,05,16,17,34,16.10
2017,05,16,17,35,16.20
2017,05,16,17,36,16.20
2017,05,16,17,37,16.20
2017,05,16,17,38,16.20
2017,05,16,17,39,16.20
2017,05,16,17,40,16.20
2017,05,16,17,41,16.10
2017,05,16,17,42,16.00
2017,05,16,17,43,16.00
2017,05,16,17,44,16.00
2017,05,16,17,45,16.10
2017,05,16,17,46,16.20